Regional Weather Roundup
Issued by NWS State College, PA

Home | Current Version | Previous Version | Text Only | Print | Product List | Glossary On
Versions: 1 2 3 4 5 6 7 8 9 10 11 12 13 14 15 16 17 18 19 20 21 22 23 24 25 26 27 28 29 30 31 32 33 34 35 36 37 38 39 40 41 42 43 44 45 46 47 48 49 50
764
ASUS41 KCTP 270110
RWRCTP

REGIONAL WEATHER ROUNDUP
NATIONAL WEATHER SERVICE STATE COLLEGE PA
900 PM EDT WED APR 26 2017

Note: "fair" indicates few or no clouds below 12,000 feet with no
significant weather and/or obstructions to visibility.

* = STATION THAT DOES NOT REPORT PRECIPITATION /E.G. RAIN...SNOW...ETC/
    THUNDER OR FOG.

PAZ002>004-007>009-013>016-020>023-029>032-270200-
WESTERN PENNSYLVANIA

CITY           SKY/WX    TMP DP  RH WIND       PRES   REMARKS
ERIE           CLEAR     71  55  56 S6        29.65R
MEADVILLE      CLEAR     70  55  59 MISG      29.68S
FRANKLIN*      CLEAR     66  54  63 SE7       29.72S
NEW CASTLE     FAIR      72  57  59 VRB6      29.69S
BEAVER COUNTY  CLEAR     72  55  56 SE7       29.69S
BUTLER*        CLEAR     68  55  64 SE6       29.71F
PITTSBURGH INT PTCLDY    72  57  59 SE6       29.69S
PITTSBURGH     CLEAR     72  54  53 SE7       29.70S
INDIANA*       CLEAR     66  59  77 CALM      29.76R
LATROBE          N/A     68  57  68 CALM      29.73R
WASHINGTON CO* CLEAR     64  55  72 SE5       29.72S
$$

PAZ004>006-010>012-017>019-024>028-033>037-041-042-045-046-049>053-270200-
CENTRAL PENNSYLVANIA

CITY           SKY/WX    TMP DP  RH WIND       PRES   REMARKS
BRADFORD       CLEAR     67  54  63 CALM      29.76R
DUBOIS         CLEAR     65  54  67 SE7       29.74S
CLEARFIELD     CLEAR     67  56  67 SE3       29.76R
JOHNSTOWN      CLEAR     65  55  70 SE9       29.78R
ALTOONA        CLEAR     64  56  75 S6        29.78R
STATE COLLEGE  CLEAR     66  55  68 CALM      29.77S
WILLIAMSPORT   CLEAR     68  58  70 NE6       29.74R
SELINSGROVE    CLEAR     61  57  87 CALM      29.78R
FT INDIANTOWN  CLEAR     63  61  93 W3        29.79R
CAPITAL CITY   CLEAR     62  55  77 W5        29.80R
HARRISBURG     PTCLDY    64  58  80 VRB3      29.79R
YORK           CLEAR     57  57 100 CALM      29.80R
$$

PAZ038>040-043-044-047-048-054-055-060>062-067>071-270200-
EASTERN PENNSYLVANIA

CITY           SKY/WX    TMP DP  RH WIND       PRES   REMARKS
SCRANTON       PTCLDY    68  56  65 CALM      29.78R
MOUNT POCONO   MOCLDY    55  55 100 SE3       29.83R
ALLENTOWN      PTCLDY    63  55  75 E5        29.80R
QUAKERTOWN*    CLOUDY    59  57  94 CALM      29.82R
READING        MOCLDY    64  59  83 S3        29.79R
LANCASTER      CLEAR     62  59  90 S3        29.79S
COATESVILLE    CLOUDY    61  59  94 CALM      29.83R
POTTSTOWN      CLEAR     57  55  93 CALM      29.82R
BLUE BELL      CLOUDY    61  55  82 CALM      29.83R
DOYLESTOWN     CLOUDY    60  58  92 CALM      29.81R
WILLOW GROVE   NOT AVBL
NORTH PHILA    CLOUDY    63  57  81 CALM      29.83R
PHILADELPHIA   CLOUDY    62  57  83 S6        29.82R
$$




USA.gov is the U.S. government's official web portal to all federal, state and local government web resources and services.